#timestamp,LO_Frequency,Hit 
1504436415.3,286046991.9,N
1504436435.1,286046993.3,N
1504436455.8,286046997.7,N
1504436475.7,286046997.5,N
1504436495.5,286046991.7,P
1504436515.3,286047001.2,N
1504436535.2,286046998.0,N
1504436555.0,286046995.3,N
1504436555.9,286046995.3,N
1504436575.7,286046995.8,N
1504436595.6,286046998.9,N
1504436615.4,286046996.5,N
1504436635.2,286046998.2,N
1504436655.1,286046999.0,N
1504436656.0,286046999.0,N
1504436675.8,286046995.9,N
1504436695.6,286046997.6,N
1504436715.5,286046993.8,N
1504436735.3,286046994.7,N
1504436755.1,286046993.0,P
1504436775.9,286046996.1,N
1504436795.7,286046998.0,N
1504436815.5,286046993.7,P
1504436835.4,286047001.0,N
1504436855.2,286047001.8,N
1504436875.0,286046999.4,N
1504436875.9,286046999.4,N
1504436895.8,286046999.1,N
1504436915.6,286046995.9,N
1504436935.4,286046992.2,N
1504436955.3,286046995.7,N
1504436975.1,286046996.8,N
1504436976.0,286046996.8,N
1504436995.8,286046996.5,N
1504437015.7,286046999.1,N
1504437035.5,286046998.6,N
1504437055.3,286046998.2,N
1504437075.2,286046999.1,N
1504437095.9,286047001.2,N
1504437115.7,286046999.1,N
1504437135.5,286046997.1,N
1504437155.4,286046996.0,N
1504437175.2,286046995.8,N
1504437195.0,286046996.6,N
1504437195.9,286046996.6,N
1504437215.8,286046998.9,N
1504437235.6,286046998.8,N
1504437255.4,286046997.3,N
1504437275.3,286046997.6,N
1504437295.1,286046995.4,N
1504437296.0,286046995.4,N
1504437315.8,286046995.1,N
1504437335.7,286046995.7,N
1504437355.5,286046993.8,P
1504437375.3,286046998.7,N
1504437395.2,286047000.4,N
1504437415.9,286046999.7,N
1504437435.7,286047002.6,N
1504437455.6,286046996.7,N
1504437475.4,286046997.7,N
1504437495.2,286046994.3,N
1504437515.1,286046996.4,N
1504437516.0,286046996.4,N
1504437535.8,286046992.0,P
1504437555.6,286046996.1,N
1504437575.5,286046999.4,N
1504437595.3,286046995.6,N
1504437615.1,286046996.1,N
1504437635.9,286046997.1,N
1504437655.7,286046991.9,P
1504437675.5,286046996.7,N
1504437695.4,286046997.6,N
1504437715.2,286046994.0,N
1504437735.0,286046995.5,N
1504437735.9,286046995.5,N
1504437755.8,286046995.6,N
1504437775.6,286046996.6,N
1504437795.4,286046995.5,N
1504437815.3,286046990.6,P
1504437835.1,286046994.6,N
1504437836.0,286046994.6,N
1504437855.8,286046994.5,N
1504437875.7,286046996.1,N
1504437895.5,286046995.1,N
1504437915.3,286047000.2,N
1504437935.2,286047001.6,N
1504437955.9,286046998.4,N
1504437975.7,286047002.3,N
1504437995.5,286047001.6,N
1504438015.4,286046997.0,N
1504438035.2,286046996.2,N
1504438055.0,286046996.9,N
1504438055.9,286046996.9,N
1504438075.8,286047000.3,N
1504438095.6,286047000.0,N
1504438115.4,286046996.2,N
1504438135.3,286046997.4,N
1504438155.1,286046999.5,N
1504438156.0,286046999.5,N
1504438175.8,286046996.5,N
1504438195.7,286046993.3,N
1504438215.5,286046994.6,N
1504438235.3,286046991.9,N
1504438255.2,286046993.6,N
1504438275.9,286046993.3,N
1504438295.7,286046993.4,N
1504438315.6,286046990.1,P
1504438335.4,286046995.0,N
1504438355.2,286046996.2,N
1504438375.1,286046994.5,N
1504438376.0,286046994.5,N
1504438395.8,286046993.2,P
1504438415.6,286046998.8,N
1504438435.5,286046997.4,N
1504438455.3,286046996.4,N
1504438475.1,286046995.6,N
1504438495.9,286046995.2,N
1504438515.7,286046993.3,P
1504438535.5,286046999.3,N
1504438555.4,286046996.5,N
1504438575.2,286046999.4,N
1504438595.0,286047000.7,N
1504438595.9,286047000.7,N
1504438615.8,286046998.7,N
1504438635.6,286046999.6,N
1504438655.4,286046998.9,N
1504438675.2,286046996.8,N
1504438695.1,286046997.0,N
1504438696.0,286046997.0,N
1504438715.8,286046997.5,N
1504438735.6,286046999.1,N
1504438755.5,286047002.5,N
1504438775.3,286046999.3,N
1504438795.1,286046997.7,N
1504438815.9,286046996.6,N
1504438835.7,286047000.3,N
1504438855.5,286047002.5,N
1504438875.4,286047002.3,N
1504438895.2,286046999.8,N
1504438915.0,286047002.1,N
1504438915.9,286047002.1,N
1504438935.8,286046999.9,N
1504438955.6,286046998.0,N
1504438975.4,286047000.9,N
1504438995.2,286046999.1,N
1504439015.1,286047000.6,N
1504439016.0,286047000.6,N
1504439035.8,286046999.5,N
1504439055.6,286046995.0,N
1504439075.5,286046999.5,N
1504439095.3,286046999.9,N
1504439115.1,286047000.0,N
1504439135.9,286046995.3,N
1504439155.7,286046994.4,N
1504439175.5,286046993.3,P
1504439195.4,286046997.7,N
1504439215.2,286046998.2,N
1504439235.0,286046998.1,N
1504439235.9,286046998.1,N
1504439255.8,286046999.1,N
1504439275.6,286046999.4,N
1504439295.4,286046995.1,N
1504439315.3,286046994.9,N
1504439335.1,286046997.6,N
1504439336.0,286046997.6,N
1504439355.8,286046998.3,N
1504439375.7,286046997.1,N
1504439395.5,286046995.3,N
1504439415.3,286046999.5,N
1504439435.2,286046997.8,N
1504439455.9,286046995.1,N
1504439475.7,286046993.3,P
1504439495.6,286046997.1,N
1504439515.4,286046997.4,N
1504439535.2,286046995.7,N
1504439555.0,286046995.4,N
1504439556.0,286046995.4,P
1504439575.8,286046998.6,P
1504439595.6,286047002.4,N
1504439615.5,286047003.6,N
1504439635.3,286047002.8,N
1504439655.1,286047002.3,N
1504439675.9,286047002.4,N
1504439695.7,286047000.9,N
1504439715.5,286047002.4,N
1504439735.3,286046999.9,N
1504439755.2,286047000.4,N
1504439775.9,286047000.2,N
1504439795.7,286047002.8,N
1504439815.6,286047001.5,N
1504439835.4,286047001.6,N
1504439855.2,286047001.9,N
1504439875.1,286046999.9,N
1504439876.0,286046999.9,N
1504439895.8,286047002.4,N
1504439915.6,286047001.6,N
1504439935.5,286047001.3,N
1504439955.3,286047000.3,N
1504439975.1,286047002.1,N
1504439995.9,286047003.7,N
